STARLINK-11413, 62593

Orbit data source: Space-Track

STARLINK-11413, 62593 is a payload satellite owned by SpaceX/Seattle (US) in LEO that was launched on Mon, 13 Jan 2025 UTC via an FALCON 9 launch vehicle from the Air Force Eastern Test Range (AFETR). Payload-class satellites include a variety of spacecraft equipped with specific instruments for various scientific and technological missions. These include communications satellites like Starlink; space stations such as the ISS; scientific satellites like the Hubble; Earth observation satellites from companies like Planet Labs, Umbra, and HawkEye 360; GPS; miniature CubeSats for education and research; and military/defense satellites.

Loading next visibility...
Identifier
62593, 2025-008G
Orbit
LEO
Country
Flag of USUS
Related business
Manufacturer
SpaceX/Seattle
Mission
Operational Commercial Communications
Bus & Motor
STARLINK V2MD, Unknown motor
Mass
960 kg wet, ~910 kg dry
Launch date (UTC)
2025-01-13 (11 months ago)
Launch vehicle
FALCON 9
Launch site
Air Force Eastern Test Range (AFETR)
Object type
Payload
Rocket body
Debris
Shape & HBR
Box + 2 Pan, 18.1 m
Radar Cross Section
36.964 m², Large (>1 m²)

Expand to show TLE details & history
Last TLE update: 22 hours ago

TLE from 22 hours ago
0 STARLINK-11413
1 62593U 25008G   25346.21564791  .00188475  00000-0  14384-2 0  9990
2 62593  42.9992 293.7153 0001353 279.9743  80.0972 15.70854058 53428
Epoch: 2025-12-12T05:10Z
TLE epoch observation values (Epoch: 2025-12-12T05:10:31.979Z)
Latitude
-0.00001°
Longitude
134.92158°
Altitude
356.069 km
Speed
7.697 km/s
True Right ascension
19h 34m 51s
True Declination
0° 00' 00"
Sunlit
Object was in daylight at epoch
Visualization orbit readout
Latitude
Unknown
Longitude
Unknown
Altitude
Unknown
Speed
Unknown
Apparent Right ascension
Unknown
Apparent Declination
Unknown
Sunlit
N/A
Visualization observer readout
Local Sidereal Time
01:30:46
Azimuth
Unknown
Elevation
Unknown
Doppler factor
Unknown
Orbital elements
Apogee altitude
359.348 km
Perigee altitude
357.525 km
Semi-major axis
6,736.574 km
Eccentricity
0.00014
Inclination
42.9992°
RAAN
293.7153°
Arg. of periapsis
279.9743°
True anomaly
80.11247°
Mean anomaly
80.0972°
Eccentric anomaly
80.10484°
Mean motion
3.92541 °/min
Orbital period
91.71 mins
BSTAR
0.0014384
Loading maneuver chart data...
Computing Atmospheric mass density...
Loading historical data...
Loading historical data...
Loading historical data...
Loading historical data...
Loading historical data...
Loading historical data...
Loading historical data...

Documentation

Showing up to 5 results
|